GW0092 Weather Reports


time (UTC)temp
C
wind
direction
speed
KPH
gust
KPH
rain 1hr
cm
rain 24hr
cm
rain mn
cm
humidity
%
barometer
mb
20260905154605 27 347 1.6 9.7 0.00 0.00 0.00 71 1011.8
20260905153102 27 31 1.6 11.3 0.00 0.00 0.00 66 1011.8
20260905151558 26 340 6.4 12.9 0.00 0.00 0.00 69 1011.7
20260905150105 26 309 3.2 11.3 0.00 0.00 0.00 68 1011.8
20260905144601 26 293 6.4 12.9 0.00 0.00 0.00 70 1011.8
20260905143100 26 314 3.2 8.0 0.00 0.00 0.00 76 1011.6
20260905141612 26 327 1.6 11.3 0.00 0.00 0.00 78 1011.5
20260905140107 25 300 3.2 12.9 0.00 0.00 0.00 78 1011.4
20260905134610 25 256 1.6 9.7 0.00 0.00 0.00 82 1011.2
20260905133100 25 331 3.2 9.7 0.00 0.00 0.00 89 1011.0
20260905131559 24 300 1.6 8.0 0.00 0.00 0.00 95 1010.8
20260905130113 24 1 1.6 8.0 0.00 0.00 0.00 96 1011.0
20260905124601 23 295 3.2 9.7 0.00 0.00 0.00 97 1010.9
20260905123109 23 324 3.2 6.4 0.00 0.00 0.00 98 1011.0
20260905121602 23 340 1.6 4.8 0.00 0.00 0.00 99 1010.8
20260905120112 23 0 0.0 0.0 0.00 0.00 0.00 99 1010.7
20260905114637 22 0 0.0 0.0 0.00 0.00 0.00 100 1010.7
20260905113102 22 0 0.0 0.0 0.00 0.00 0.00 100 1010.6
20260905111601 22 0 0.0 0.0 0.00 0.00 0.00 100 1010.7
20260905110059 22 310 0.0 1.6 0.00 0.00 0.00 100 1010.3
20260905104605 22 0 0.0 1.6 0.00 0.03 0.00 99 1009.9
20260905103101 22 333 0.0 4.8 0.00 0.03 0.00 99 1009.8
20260905101600 22 0 0.0 1.6 0.00 0.03 0.00 99 1009.7
20260905100113 22 0 0.0 0.0 0.00 0.03 0.00 99 1009.6
20260905094624 22 0 0.0 0.0 0.00 0.03 0.00 99 1009.6
20260905093102 22 0 0.0 0.0 0.00 0.03 0.00 99 1009.6
20260905091615 22 0 0.0 1.6 0.00 0.03 0.00 99 1009.6
20260905090057 22 0 0.0 0.0 0.00 0.03 0.00 98 1009.8
20260905084603 22 0 0.0 1.6 0.00 0.08 0.00 98 1009.9
20260905083102 22 0 0.0 1.6 0.00 0.08 0.00 98 1009.8
20260905081558 22 342 0.0 3.2 0.00 0.08 0.00 98 1009.8
20260905080101 22 333 0.0 3.2 0.00 0.08 0.00 98 1010.0
20260905074605 23 353 0.0 4.8 0.00 0.30 0.00 97 1009.9
20260905073105 23 28 1.6 6.4 0.00 0.30 0.00 97 1009.9
20260905071602 23 283 0.0 3.2 0.00 0.30 0.00 97 1010.1
20260905070104 23 328 0.0 1.6 0.00 0.30 0.00 97 1010.3
20260905064616 23 0 0.0 3.2 0.00 0.99 0.00 97 1010.2
20260905063059 23 0 0.0 4.8 0.00 0.99 0.00 97 1010.4
20260905061619 23 307 0.0 3.2 0.00 0.99 0.00 97 1010.5
20260905060104 23 0 0.0 0.0 0.00 0.99 0.00 96 1010.2
20260905054604 23 0 0.0 1.6 0.00 0.99 0.00 96 1010.3
20260905053102 24 335 0.0 3.2 0.00 0.99 0.00 95 1010.7
20260905051611 24 0 0.0 3.2 0.00 0.99 0.00 95 1010.9
20260905050107 24 319 1.6 4.8 0.00 0.99 0.00 95 1011.2
20260905044603 24 322 1.6 4.8 0.00 0.99 0.00 95 1011.1
20260905043055 25 352 1.6 6.4 0.00 0.99 0.00 96 1011.1
20260905041604 24 0 0.0 0.0 0.00 0.99 0.00 96 1011.4
20260905040103 24 0 0.0 0.0 0.00 0.99 0.00 97 1011.5
20260905034609 24 0 0.0 0.0 0.00 0.99 0.99 97 1011.6
20260905033111 23 0 0.0 0.0 0.00 0.99 0.99 97 1011.8
20260905031616 23 0 0.0 0.0 0.00 0.99 0.99 97 1011.9
20260905030110 23 0 0.0 0.0 0.00 0.99 0.99 97 1011.9
20260905024602 23 0 0.0 0.0 0.00 0.99 0.99 97 1011.8
20260905023127 23 0 0.0 0.0 0.00 0.99 0.99 96 1011.6
20260905021602 23 0 0.0 0.0 0.00 0.99 0.99 96 1011.9
20260905020106 24 0 0.0 0.0 0.00 0.99 0.99 96 1012.1
20260905014616 23 0 0.0 0.0 0.00 0.99 0.99 96 1012.1
20260905013057 24 0 0.0 0.0 0.00 0.99 0.99 96 1012.1
20260905011607 24 0 0.0 0.0 0.00 0.99 0.99 95 1012.1
20260905010107 24 0 0.0 0.0 0.00 0.99 0.99 95 1012.2
20260905004601 24 0 0.0 0.0 0.00 0.99 0.99 94 1012.2
20260905003058 24 0 0.0 0.0 0.00 0.99 0.99 94 1012.0
20260905001558 25 0 0.0 0.0 0.00 0.99 0.99 93 1012.0
20260905000119 25 0 0.0 0.0 0.00 0.99 0.99 92 1011.6
20260904234601 25 0 0.0 0.0 0.00 0.99 0.99 91 1011.3
20260904233100 25 0 0.0 0.0 0.00 0.99 0.99 90 1011.4
20260904231600 26 0 0.0 0.0 0.00 0.99 0.99 88 1011.7
20260904230105 27 0 0.0 0.0 0.00 0.99 0.99 86 1012.0
20260904224606 27 0 0.0 1.6 0.00 0.99 0.99 83 1012.2
20260904223058 27 318 0.0 4.8 0.00 0.99 0.99 82 1012.5
20260904221605 28 312 1.6 4.8 0.00 0.99 0.99 81 1012.8
20260904220119 28 0 3.2 6.4 0.00 0.99 0.99 82 1012.4
20260904214600 28 0 0.0 0.0 0.00 0.99 0.99 82 1011.9
20260904213107 29 0 0.0 1.6 0.00 0.99 0.99 77 1012.0
20260904211606 30 8 1.6 8.0 0.00 0.99 0.99 73 1011.9
20260904210117 31 301 3.2 8.0 0.00 0.99 0.99 70 1012.0
20260904204604 31 295 3.2 8.0 0.00 0.99 0.99 69 1012.0
20260904203102 31 345 3.2 9.7 0.00 0.99 0.99 68 1011.9
20260904201602 31 258 0.0 6.4 0.00 0.99 0.99 73 1011.8
20260904194558 31 321 3.2 8.0 0.00 0.99 0.99 71 1012.0
20260904193116 30 20 4.8 11.3 0.00 0.99 0.99 74 1012.3
20260904191604 30 356 3.2 9.7 0.00 0.99 0.99 73 1012.6
20260904190058 30 28 0.0 6.4 0.00 0.99 0.99 75 1012.5
20260904184621 30 223 3.2 9.7 0.00 0.99 0.99 71 1012.9
20260904183102 30 281 6.4 11.3 0.00 0.99 0.99 72 1013.2
20260904181610 29 274 3.2 11.3 0.00 0.99 0.99 78 1013.2
20260904180120 30 0 1.6 9.7 0.00 0.99 0.99 74 1013.2
20260904174613 30 293 3.2 9.7 0.00 0.99 0.99 78 1013.4
20260904173101 29 292 4.8 12.9 0.00 0.99 0.99 74 1013.5
20260904171606 29 326 3.2 9.7 0.00 0.99 0.99 77 1013.4
20260904170105 28 296 4.8 9.7 0.00 0.99 0.99 74 1013.5
20260904164602 28 275 4.8 11.3 0.00 0.99 0.99 76 1013.6
20260904163107 28 286 4.8 12.9 0.00 0.99 0.99 78 1013.7
20260904161603 28 15 4.8 11.3 0.00 0.99 0.99 76 1013.7
20260904160106 28 346 6.4 17.7 0.00 0.99 0.99 79 1013.9